Regional Weather Roundup
Issued by NWS

Home | Current Version | Previous Version | Graphics & Text | Print | Product List | Glossary On
Versions: 1 2 3 4 5 6 7 8 9 10 11 12 13 14 15 16 17 18 19 20 21 22 23 24 25 26 27 28 29 30 31 32 33 34 35 36 37 38 39 40 41 42 43 44 45 46 47 48 49 50
000
ASUS43 KFSD 271710
RWRSD

WEATHER ROUNDUP FOR SOUTH DAKOTA
NATIONAL WEATHER SERVICE SIOUX FALLS SD
1100 AM CST TUE JAN 27 2015

NOTE: "FAIR" INDICATES FEW OR NO CLOUDS BELOW 12,000 FEET WITH NO
SIGNIFICANT WEATHER AND/OR OBSTRUCTIONS TO VISIBILITY.


SDZ001>005-009-010-012>017-271800-
NORTHWEST AND NORTH CENTRAL SOUTH DAKOTA

CITY           SKY/WX    TMP DP  RH WIND       PRES   REMARKS
BUFFALO          N/A     54  31  41 W10       29.87R
FAITH            N/A     54  32  43 SW8       29.92S
MOBRIDGE       SUNNY     40  33  76 SE10      29.91R
$$

SDZ012>016-024>037-041>051-057-063-072>074-271800-
SOUTHWEST AND SOUTH CENTRAL SOUTH DAKOTA

CITY           SKY/WX    TMP DP  RH WIND       PRES   REMARKS
RAPID CTY ARPT SUNNY     64  25  22 W8        29.97R
PIERRE         SUNNY     40  33  76 SE7       29.94F
CUSTER         SUNNY     62  21  20 W6        30.08S
ELLSWORTH AFB  SUNNY     63  28  26 W6        29.97R
PHILIP         SUNNY     52  32  46 W10       29.94S
PINE RIDGE     SUNNY     55  30  38 W9        30.02S
SPEARFISH      FAIR      63  27  25 NW3       30.00S
WINNER         FAIR      50  36  58 CALM      29.96F
$$

SDZ004>011-016>023-039-040-271800-
NORTHEAST SOUTH DAKOTA

CITY           SKY/WX    TMP DP  RH WIND       PRES   REMARKS
ABERDEEN       SUNNY     38  33  82 S12       30.01F
WATERTOWN      SUNNY     34  30  85 SE12      30.03F WCI  25
SISSETON         N/A     29  29 100 S14       30.07R WCI  18
$$

SDZ017-020-022-023-036>040-048>070-271800-
SOUTHEAST SOUTH DAKOTA

CITY           SKY/WX    TMP DP  RH WIND       PRES   REMARKS
SIOUX FALLS    FOG       31  30  96 SE7       30.08F VSB 3/4 WCI  24
HURON          SUNNY     38  33  82 S15G25    30.02S
CHAMBERLAIN    SUNNY     41  34  76 SE8       29.98S
MITCHELL       SUNNY     40  35  83 S13       30.05S
YANKTON        SUNNY     39  34  81 SE8       30.08F
$$

ABBREVIATIONS USED IN REMARKS
   TC - TEMPERATURE IN CELSIUS
  WCI - WIND CHILL INDEX
   HX - HEAT INDEX
  VSB - VISIBILITY




USA.gov is the U.S. government's official web portal to all federal, state and local government web resources and services.